Showing default

SPAWAR-CAL-OR, 43778

Orbit data source: Space-Track

SPAWAR-CAL-OR, 43778 is a payload satellite owned by SPAWAR (US) in SSO that was launched on Mon, 03 Dec 2018 UTC via an FALCON 9 launch vehicle from the Air Force Western Test Range (AFWTR). Payload-class satellites include a variety of spacecraft equipped with specific instruments for various scientific and technological missions. These include communications satellites like Starlink; space stations such as the ISS; scientific satellites like the Hubble; Earth observation satellites from companies like Planet Labs, Umbra, and HawkEye 360; GPS; miniature CubeSats for education and research; and military/defense satellites.

Loading next visibility...
Identifier
43778, 2018-099W
Orbit
SSO
Country
Flag of USUS
Related business
Manufacturer
SPAWAR?
Mission
Operational Defense Calibration
Bus & Motor
CUBESAT 1U, Unknown motor
Mass
1 kg wet, 1 kg dry
Launch date (UTC)
2018-12-03 (8 years ago)
Launch vehicle
FALCON 9
Launch site
Air Force Western Test Range (AFWTR)
Object type
Payload
Rocket body
Debris
Shape & HBR
Box, 0.1 m
Radar Cross Section
0.015 m², Medium (>0.1 m² and < 1m²)

Expand to show TLE details & history
Last TLE update: 1 day ago

TLE from 1 day ago
0 SPAWAR-CAL-OR
1 43778U 18099W   26235.09804300  .00008346  00000-0  34288-3 0  9997
2 43778  97.3751 282.2654 0012934  83.4141 276.8568 15.24367908422849
Epoch: 2026-08-23T02:21Z
TLE epoch observation values (Epoch: 2026-08-23T02:21:10.915Z)
Latitude
-0.00006°
Longitude
-84.42905°
Altitude
494.731 km
Speed
7.618 km/s
True Right ascension
18h 49m 03s
True Declination
0° 00' 00"
Sunlit
Object was in full shadow at epoch
Visualization orbit readout
Latitude
Unknown
Longitude
Unknown
Altitude
Unknown
Speed
Unknown
Apparent Right ascension
Unknown
Apparent Declination
Unknown
Sunlit
N/A
Visualization observer readout
Local Sidereal Time
23:04:48
Azimuth
Unknown
Elevation
Unknown
Doppler factor
Unknown
Orbital elements
Apogee altitude
498.526 km
Perigee altitude
480.76 km
Semi-major axis
6,867.78 km
Eccentricity
0.00129
Inclination
97.3751°
RAAN
282.2654°
Arg. of periapsis
83.4141°
True anomaly
276.70962°
Mean anomaly
276.8568°
Eccentric anomaly
276.78321°
Mean motion
3.81345 °/min
Orbital period
94.4 mins
BSTAR
0.00034288
Loading maneuver chart data...
Computing Atmospheric mass density...
Loading historical data...
Loading historical data...
Loading historical data...
Loading historical data...
Loading historical data...
Loading historical data...
Loading historical data...

Documentation

Showing up to 5 results
|